Warning: Javascript must be enabled to use all the features on this page!


Page Loading - Please Wait...

Click to hideNews Bulletins

Peak Streamflow for the Nation

USGS 12323750 Silver Bow Creek at Warm Springs MT

Deer Lodge County, Montana
Hydrologic Unit Code 17010201
Latitude  46°10'46.19", Longitude 112°46'50.02" NAD83
Drainage area 473  square miles
Gage datum 4,787.95 feet above NGVD29
Output formats
Table
Graph
Tab-separated file
peakfq (watstore) format
Reselect output format
Water
Year
Date Gage
Height
(feet)
Stream-
flow
(cfs)
1972 1972-06-03 3.63 586
1973 1973-05-25 2.54 324
1974 1974-01-16 8.641 1,000
1975 1975-06-20 7.47 1,320
1976 1976-03-18 6.84 1,210
1977 1976-11-18 2.792 226
1978 1978-03-19 4.75 637
1979 1979-05-25 3.862 460
1989 1989-03-10   5502,7
1993 1993-05-18 4.33 407
1994 1994-05-26 2.67 217
1995 1995-06-09 3.77 709
1996 1996-06-10 3.29 471
1997 1997-06-07 3.80 784
1998 1998-06-26 2.88 296
1999 1999-06-05 3.08 359
2000 2000-05-31 2.39 103
2001 2001-05-16 2.41 125
2002 2002-06-03 2.752 207
2003 2003-03-14 3.33 457
2004 2004-06-06 2.37 114
2005 2005-05-20 3.03 330
2006 2006-05-21 2.87 274
2007 2007-06-06 3.06 330
2008 2008-06-04 3.42 516
2009 2009-05-29 3.49 552
2010 2010-06-17 3.67 651
2011 2011-06-13 4.30 1,080
2012 2012-06-06 2.89 288
2013 2013-05-30 2.61 213
2014 2014-05-27 3.00 359
2015 2015-05-17 3.00 359
2016 2016-05-21 2.76 266
2017 2017-06-13 3.44 532
2018 2018-06-19 3.82 741
2019 2019-04-08 3.62 650
2020 2020-06-19 3.43 555
?
  Peak Gage-Height Qualification Codes.
?
  Peak Streamflow Qualification Codes.